Helder met enkele lage wolken
Gedeeltelijk bewolkt
Gedeeltelijk bewolkt
Gedeeltelijk bewolkt
Overwegend bewolkt
Overwegend bewolkt
Overwegend bewolkt
Overwegend bewolkt
Overwegend bewolkt
(°C)
20°
20°
19°
19°
19°
19°
18°
18°
18°
18°
18°
18°
17°
17°
17°
17°
17°
17°
(°C)
18°
18°
18°
18°
18°
17°
17°
17°
16°
ZZW
ZZW
ZZW
ZZW
ZZW
Z
Z
Z
Z
(km/h)
15-24
14-23
12-21
10-18
8-16
8-15
7-14
7-14
7-15
(mm)
0
0
0
0
0
0
0
0
0
(%)
0
0
0
0
0
0
0
0
0

Zonverhoging

/ 35.9°
sun-icon
UV 11
05:39
19:59
Wassende gibbous maan (115°)
15:09
01:56

METAR voor San Diego (KSAN)

Tijd Voorwaarden Temperatuur/
Dauwpunt
Wind Zicht Weer Wolken Luchtdruk Wijzigen Ruw
MVFR 19.4°C / 13.3°C 190º 9kt >10km - Broken Clouds 1700ft 1008 - KSAN 162251Z 19009KT 8SM BKN017 19/13 A2979 RMK AO2 SLP086 T01940133 $
MVFR 20°C / 13.9°C 220º 11kt Gust 22kt >10km - Broken Clouds 1600ft 1008 - KSAN 162151Z 22011G22KT 7SM BKN016 20/14 A2979 RMK AO2 SLP088 T02000139 $
MVFR 20°C / 13.9°C 180º 11kt Gust 18kt >10km - Broken Clouds 1600ft 1009 - KSAN 162051Z 18011G18KT 7SM BKN016 20/14 A2980 RMK AO2 SLP090 T02000139 58004 $
MVFR 20°C / 13.9°C 180º 11kt Gust 18kt >10km - Broken Clouds 1600ft 1009 - KSAN 161951Z 18011G18KT 7SM BKN016 20/14 A2980 RMK AO2 SLP091 T02000139 $
MVFR 19.4°C / 13.9°C 200º 9kt Gust 23kt >10km - Broken Clouds 1500ft 1009 - KSAN 161851Z 20009G23KT 7SM BKN015 19/14 A2981 RMK AO2 SLP094 T01940139 $
MVFR 18.9°C / 13.9°C 200º 12kt Gust 21kt >10km - Broken Clouds 1500ft - KSAN 161755Z 20012G21KT 7SM BKN015 19/14 A2981 RMK AO2 T01890139 $
MVFR 18.3°C / 13.9°C 180º 9kt Gust 25kt 9700m Haze Broken Clouds 1400ft 1009 - KSAN 161651Z 18009G25KT 6SM HZ BKN014 18/14 A2981 RMK AO2 SLP092 T01830139 $
MVFR 18.3°C / 13.9°C 170º 9kt >10km - Overcast 1300ft - KSAN 161608Z 17009KT 7SM OVC013 18/14 A2980 RMK AO2 T01830139 $
MVFR 18.3°C / 13.9°C 170º 9kt Gust 20kt >10km - Broken Clouds 1200ft 1009 - KSAN 161551Z 17009G20KT 7SM BKN012 18/14 A2981 RMK AO2 SLP092 T01830139 $
MVFR 17.8°C / 13.9°C 140º 12kt 9700m Haze Overcast 1200ft - KSAN 161510Z 14012KT 6SM HZ OVC012 18/14 A2980 RMK AO2 T01780139 $
MVFR 17.8°C / 13.9°C 150º 9kt Gust 19kt 9700m Haze Overcast 1100ft 1009 - KSAN 161451Z 15009G19KT 6SM HZ OVC011 18/14 A2980 RMK AO2 SLP090 T01780139 53005 $
MVFR 17.8°C / 13.9°C 150º 9kt Gust 20kt >10km - Overcast 1000ft - KSAN 161424Z 15009G20KT 7SM OVC010 18/14 A2980 RMK AO2 T01780139 $
IFR 17.2°C / 14.4°C 160º 9kt Gust 15kt 9700m Haze Overcast 900ft 1008 - KSAN 161351Z 16009G15KT 6SM HZ OVC009 17/14 A2979 RMK AO2 SLP087 T01720144 $
MVFR 17.2°C / 13.9°C 170º 8kt >10km - Overcast 1100ft 1008 - KSAN 161251Z 17008KT 8SM OVC011 17/14 A2979 RMK AO2 SLP086 T01720139 $
MVFR 17.2°C / 14.4°C 190º 6kt >10km - Overcast 1100ft 1008 - KSAN 161151Z 19006KT 8SM OVC011 17/14 A2978 RMK AO2 SLP084 T01720144 10194 20172 55004 $
MVFR 17.8°C / 14.4°C 190º 6kt >10km - Overcast 1100ft 1008 - KSAN 161051Z 19006KT 8SM OVC011 18/14 A2978 RMK AO2 SLP082 T01780144 $
MVFR 17.8°C / 14.4°C 190º 7kt >10km - Overcast 1100ft 1008 - KSAN 160951Z 19007KT 8SM OVC011 18/14 A2978 RMK AO2 SLP085 T01780144 $
MVFR 18.3°C / 15.6°C 190º 6kt >10km - Broken Clouds 1200ft 1008 - KSAN 160851Z 19006KT 8SM BKN012 18/16 A2979 RMK AO2 SLP088 T01830156 56008 $
MVFR 18.9°C / 15.6°C 170º 5kt >10km - Overcast 1000ft 1009 - KSAN 160751Z 17005KT 9SM OVC010 19/16 A2980 RMK AO2 SLP090 T01890156 402330161 $
MVFR 18.9°C / 16.1°C 160º 4kt >10km - Overcast 1000ft - KSAN 160704Z 16004KT 8SM OVC010 19/16 A2981 RMK AO2 T01890161 $
IFR 18.9°C / 16.1°C 150º 5kt >10km - Overcast 900ft 1009 - KSAN 160651Z 15005KT 8SM OVC009 19/16 A2981 RMK AO2 SLP094 T01890161 $
IFR 19.4°C / 16.7°C 190º 4kt >10km - Broken Clouds 900ft 1009 - KSAN 160551Z 19004KT 8SM BKN009 19/17 A2982 RMK AO2 SLP096 T01940167 10228 20189 51006 $
IFR 19°C / 17°C 180º 4kt >10km - Broken Clouds 900ft - KSAN 160546Z 18004KT 8SM BKN009 19/17 A2982 RMK AO2 $
VFR 19.4°C / 16.7°C variable 0kt >10km - Few Clouds 900ft 1009 - KSAN 160451Z 00000KT 8SM FEW009 19/17 A2981 RMK AO2 SLP096 T01940167 $

MVFR

19.4°C / 13.3°C

[Meer]
Wind 190º 9kt
Zicht >10km
Weer -
Wolken Broken Clouds 1700ft
Luchtdruk 1008
Wijzigen -
Ruw KSAN 162251Z 19009KT 8SM BKN017 19/13 A2979 RMK AO2 SLP086 T01940133 $

MVFR

20°C / 13.9°C

[Meer]
Wind 220º 11kt Gust 22kt
Zicht >10km
Weer -
Wolken Broken Clouds 1600ft
Luchtdruk 1008
Wijzigen -
Ruw KSAN 162151Z 22011G22KT 7SM BKN016 20/14 A2979 RMK AO2 SLP088 T02000139 $

MVFR

20°C / 13.9°C

[Meer]
Wind 180º 11kt Gust 18kt
Zicht >10km
Weer -
Wolken Broken Clouds 1600ft
Luchtdruk 1009
Wijzigen -
Ruw KSAN 162051Z 18011G18KT 7SM BKN016 20/14 A2980 RMK AO2 SLP090 T02000139 58004 $

MVFR

20°C / 13.9°C

[Meer]
Wind 180º 11kt Gust 18kt
Zicht >10km
Weer -
Wolken Broken Clouds 1600ft
Luchtdruk 1009
Wijzigen -
Ruw KSAN 161951Z 18011G18KT 7SM BKN016 20/14 A2980 RMK AO2 SLP091 T02000139 $

MVFR

19.4°C / 13.9°C

[Meer]
Wind 200º 9kt Gust 23kt
Zicht >10km
Weer -
Wolken Broken Clouds 1500ft
Luchtdruk 1009
Wijzigen -
Ruw KSAN 161851Z 20009G23KT 7SM BKN015 19/14 A2981 RMK AO2 SLP094 T01940139 $

MVFR

18.9°C / 13.9°C

[Meer]
Wind 200º 12kt Gust 21kt
Zicht >10km
Weer -
Wolken Broken Clouds 1500ft
Luchtdruk
Wijzigen -
Ruw KSAN 161755Z 20012G21KT 7SM BKN015 19/14 A2981 RMK AO2 T01890139 $

MVFR

18.3°C / 13.9°C

[Meer]
Wind 180º 9kt Gust 25kt
Zicht 9700m
Weer Haze
Wolken Broken Clouds 1400ft
Luchtdruk 1009
Wijzigen -
Ruw KSAN 161651Z 18009G25KT 6SM HZ BKN014 18/14 A2981 RMK AO2 SLP092 T01830139 $

MVFR

18.3°C / 13.9°C

[Meer]
Wind 170º 9kt
Zicht >10km
Weer -
Wolken Overcast 1300ft
Luchtdruk
Wijzigen -
Ruw KSAN 161608Z 17009KT 7SM OVC013 18/14 A2980 RMK AO2 T01830139 $

MVFR

18.3°C / 13.9°C

[Meer]
Wind 170º 9kt Gust 20kt
Zicht >10km
Weer -
Wolken Broken Clouds 1200ft
Luchtdruk 1009
Wijzigen -
Ruw KSAN 161551Z 17009G20KT 7SM BKN012 18/14 A2981 RMK AO2 SLP092 T01830139 $

MVFR

17.8°C / 13.9°C

[Meer]
Wind 140º 12kt
Zicht 9700m
Weer Haze
Wolken Overcast 1200ft
Luchtdruk
Wijzigen -
Ruw KSAN 161510Z 14012KT 6SM HZ OVC012 18/14 A2980 RMK AO2 T01780139 $

MVFR

17.8°C / 13.9°C

[Meer]
Wind 150º 9kt Gust 19kt
Zicht 9700m
Weer Haze
Wolken Overcast 1100ft
Luchtdruk 1009
Wijzigen -
Ruw KSAN 161451Z 15009G19KT 6SM HZ OVC011 18/14 A2980 RMK AO2 SLP090 T01780139 53005 $

MVFR

17.8°C / 13.9°C

[Meer]
Wind 150º 9kt Gust 20kt
Zicht >10km
Weer -
Wolken Overcast 1000ft
Luchtdruk
Wijzigen -
Ruw KSAN 161424Z 15009G20KT 7SM OVC010 18/14 A2980 RMK AO2 T01780139 $

IFR

17.2°C / 14.4°C

[Meer]
Wind 160º 9kt Gust 15kt
Zicht 9700m
Weer Haze
Wolken Overcast 900ft
Luchtdruk 1008
Wijzigen -
Ruw KSAN 161351Z 16009G15KT 6SM HZ OVC009 17/14 A2979 RMK AO2 SLP087 T01720144 $

MVFR

17.2°C / 13.9°C

[Meer]
Wind 170º 8kt
Zicht >10km
Weer -
Wolken Overcast 1100ft
Luchtdruk 1008
Wijzigen -
Ruw KSAN 161251Z 17008KT 8SM OVC011 17/14 A2979 RMK AO2 SLP086 T01720139 $

MVFR

17.2°C / 14.4°C

[Meer]
Wind 190º 6kt
Zicht >10km
Weer -
Wolken Overcast 1100ft
Luchtdruk 1008
Wijzigen -
Ruw KSAN 161151Z 19006KT 8SM OVC011 17/14 A2978 RMK AO2 SLP084 T01720144 10194 20172 55004 $

MVFR

17.8°C / 14.4°C

[Meer]
Wind 190º 6kt
Zicht >10km
Weer -
Wolken Overcast 1100ft
Luchtdruk 1008
Wijzigen -
Ruw KSAN 161051Z 19006KT 8SM OVC011 18/14 A2978 RMK AO2 SLP082 T01780144 $

MVFR

17.8°C / 14.4°C

[Meer]
Wind 190º 7kt
Zicht >10km
Weer -
Wolken Overcast 1100ft
Luchtdruk 1008
Wijzigen -
Ruw KSAN 160951Z 19007KT 8SM OVC011 18/14 A2978 RMK AO2 SLP085 T01780144 $

MVFR

18.3°C / 15.6°C

[Meer]
Wind 190º 6kt
Zicht >10km
Weer -
Wolken Broken Clouds 1200ft
Luchtdruk 1008
Wijzigen -
Ruw KSAN 160851Z 19006KT 8SM BKN012 18/16 A2979 RMK AO2 SLP088 T01830156 56008 $

MVFR

18.9°C / 15.6°C

[Meer]
Wind 170º 5kt
Zicht >10km
Weer -
Wolken Overcast 1000ft
Luchtdruk 1009
Wijzigen -
Ruw KSAN 160751Z 17005KT 9SM OVC010 19/16 A2980 RMK AO2 SLP090 T01890156 402330161 $

MVFR

18.9°C / 16.1°C

[Meer]
Wind 160º 4kt
Zicht >10km
Weer -
Wolken Overcast 1000ft
Luchtdruk
Wijzigen -
Ruw KSAN 160704Z 16004KT 8SM OVC010 19/16 A2981 RMK AO2 T01890161 $

IFR

18.9°C / 16.1°C

[Meer]
Wind 150º 5kt
Zicht >10km
Weer -
Wolken Overcast 900ft
Luchtdruk 1009
Wijzigen -
Ruw KSAN 160651Z 15005KT 8SM OVC009 19/16 A2981 RMK AO2 SLP094 T01890161 $

IFR

19.4°C / 16.7°C

[Meer]
Wind 190º 4kt
Zicht >10km
Weer -
Wolken Broken Clouds 900ft
Luchtdruk 1009
Wijzigen -
Ruw KSAN 160551Z 19004KT 8SM BKN009 19/17 A2982 RMK AO2 SLP096 T01940167 10228 20189 51006 $

IFR

19°C / 17°C

[Meer]
Wind 180º 4kt
Zicht >10km
Weer -
Wolken Broken Clouds 900ft
Luchtdruk
Wijzigen -
Ruw KSAN 160546Z 18004KT 8SM BKN009 19/17 A2982 RMK AO2 $

VFR

19.4°C / 16.7°C

[Meer]
Wind variable 0kt
Zicht >10km
Weer -
Wolken Few Clouds 900ft
Luchtdruk 1009
Wijzigen -
Ruw KSAN 160451Z 00000KT 8SM FEW009 19/17 A2981 RMK AO2 SLP096 T01940167 $

TAF voor San Diego (KSAN)

From till


From till Wind 200º 11kt. Gust 17kt. Visibility 9700m. Broken Clouds 1700ft.
From till Wind 190º 10kt. Visibility 9700m. Broken Clouds 1500ft.
From till Wind 190º 11kt. Gust 18kt. Visibility 9700m. Scattered Clouds 2000ft.
From till Wind 210º 9kt. Visibility 9700m. Broken Clouds 1800ft.

Ruw: KSAN 162328Z 1700/1806 20011G17KT P6SM BKN017 FM170200 19010KT P6SM BKN015 FM171730 19011G18KT P6SM SCT020 FM180300 21009KT P6SM BKN018

rainNOW: Regenvoorspelling voor San Diego en omgeving (25km radius)

0.0 mm
0.0 mm
0.0 mm
0.0 mm
0.0 mm
0.0 mm
0.0 mm
0.0 mm
0.0 mm
0.0 mm
0.0 mm
0.0 mm

Radar en neerslag nowcast voor San Diego

Motregen
Licht
Matig
Zwaar
Zeer zwaar
Hagel

De locatiemarkering is op San Diego geplaatst . Deze animatie toont de neerslagradar voor het geselecteerde tijdvak, alsmede een 1h voorspelling. Oranje kruisjes geven de bliksem aan. Gegevens verstrekt door nowcast.de (beschikbaar in de VS, Europa en Australië). Motregen of lichte sneeuwval kan onzichtbaar zijn voor de radar. De neerslagintensiteit heeft een kleurcode, gaande van turkoois tot rood.

Huidige satellietbeelden voor San Diego, Verenigde Staten

De locatiemarkering is op San Diego geplaatst. [Meer]

Het realtime satellietbeeld combineert zichtbaar licht overdag met infraroodstraling 's nachts. 's Nachts is het beeld niet donker, omdat infraroodstraling temperatuurverschillen kan waarnemen. Helaas zijn lage wolken en mist moeilijk te onderscheiden van grondtemperaturen en kunnen dus 's nachts bijna onzichtbaar zijn. Meteosat-satellietbeelden voor Europa worden elke 5 minuten in real time bijgewerkt. De beelden van GOES-16/GOES-17 (Noord- en Zuid-Amerika) en Himawari (Azië) worden om de 10 minuten bijgewerkt.

De neerslag wordt geschat met behulp van radar en satellieten. Neerslagschattingen van satellieten zijn 's nachts minder nauwkeurig dan overdag.

© 2024 meteoblue, NOAA Satellites GOES-16 and EUMETSAT. Bliksemgegevens verstrekt door nowcast.

Terug naar boven
×
Hallo daar,
Het lijkt erop dat u een advertentieblokker gebruikt.

Reclame is van essentieel belang om onze gratis website te onderhouden met unieke details en nauwkeurigheid.

Gelieve www.meteoblue.com te whitelisten op uw ad blocker of overweeg één van onze producten:

Heeft u al een abonnement?
Dan kunt u inloggen.